Regional Weather Roundup
Issued by NWS New Orleans/Baton Rouge, LA

Home | Current Version | Previous Version | Text Only | Print | Product List | Glossary On
Versions: 1 2 3 4 5 6 7 8 9 10 11 12 13 14 15 16 17 18 19 20 21 22 23 24 25 26 27 28 29 30 31 32 33 34 35 36 37 38 39 40 41 42 43 44 45 46 47 48 49 50
140
ASUS44 KLIX 231806
RWRLIX
NEW ORLEANS REGIONAL WEATHER ROUNDUP
NATIONAL WEATHER SERVICE NEW ORLEANS LA
100 PM CDT MON APR 23 2018

NOTE: "FAIR" INDICATES FEW OR NO CLOUDS BELOW 12,000 FEET WITH NO
      SIGNIFICANT WEATHER AND/OR OBSTRUCTIONS TO VISIBILITY.
      SKY/WX - SKY CONDITION AND SIGNIFICANT WEATHER.
      TMP - AIR TEMPERATURE.     DP    - DEWPOINT TEMPERATURE.
      RH  - RELATIVE HUMIDITY.   PRES  - PRESSURE.
      HI  - HEAT INDEX.          WCI   - WIND CHILL INDEX.

*  THESE STATIONS ARE NOT NWS OR FAA STATIONS AND ARE NOT UNDER
   NWS QUALITY CONTROL.

LAZ038-040-048-061>063-065>067-069-231900-
SOUTHEAST LOUISIANA

CITY           SKY/WX    TMP DP  RH WIND       PRES   REMARKS
N.O. INTL ARPT FAIR      71  55  56 W14       29.99F
6HR MIN TEMP:  56; 6HR MAX TEMP:  71;

N.O. LAKEFRONT FAIR      70  55  59 W16       29.99F
6HR MIN TEMP:  62; 6HR MAX TEMP:  70;

N.O. DOWNTOWN* FAIR      71  51  49 SW8G18    29.99F
6HR MIN TEMP:  58; 6HR MAX TEMP:  72;

RESERVE*       MOCLDY    75  53  45 W12G17    29.99F
6HR MIN TEMP:  54; 6HR MAX TEMP:  75;

SLIDELL        CLOUDY    68  51  54 W12G17    29.97F
6HR MIN TEMP:  52; 6HR MAX TEMP:  68;

BATON ROUGE    PTSUNNY   65  51  60 W16       30.01F
6HR MIN TEMP:  52; 6HR MAX TEMP:  66;

BOOTHVILLE     FAIR      70  54  56 SW14      30.02F
6HR MIN TEMP:  59; 6HR MAX TEMP:  70;

BELLE CHASSE   FAIR      71  56  58 W14G22    29.99F
6HR MIN TEMP:  53; 6HR MAX TEMP:  71;

BOGALUSA*      CLOUDY    66  52  59 NW8       29.99F
6HR MIN TEMP:  51; 6HR MAX TEMP:  67;

GALLIANO*      FAIR      71  50  47 W14G21    30.00F
6HR MIN TEMP:  54; 6HR MAX TEMP:  71;

NEW ROADS*     CLOUDY    64  53  66 NW8       30.02F
6HR MIN TEMP:  51; 6HR MAX TEMP:  66;

GONZALES*      FAIR      69  53  55 NW13      30.00S
6HR MIN TEMP:  53; 6HR MAX TEMP:  69;

HAMMOND*       CLOUDY    66  52  59 NW17      30.00S
HOUMA*         MOSUNNY   72  54  53 SW12      30.00F
PORT FOURCHON* PTCLDY    68  55  64 SW17      30.02F

$$

MSZ070-080>082-231900-
SOUTHERN MISSISSIPPI

CITY           SKY/WX    TMP DP  RH WIND       PRES   REMARKS
MCCOMB         CLOUDY    60  51  72 W9        30.00F
6HR MIN TEMP:  52; 6HR MAX TEMP:  60;

GULFPORT       FAIR      71  52  50 W7G22     29.96F
6HR MIN TEMP:  56; 6HR MAX TEMP:  72;

BILOXI         NOT AVBL
PASCAGOULA     FAIR      73  50  44 W12       29.95F
6HR MIN TEMP:  60; 6HR MAX TEMP:  74;

STENNIS ARPT*  MOSUNNY   70  52  52 NW7G16    29.97F

$$

COASTAL OBSERVATIONS
LAKE AND NEARSHORE STATIONS

STATION/POSITION TIME  SKY/WX   TEMP    WIND        PRES    WAVE
                                AIR SEA DIR/SP/G            HT/PER
                 (UTC)          (F)     (DEG/KT/KT) (MB)    (FT/S)
WAVELAND YACHT   1748            68 69  300/ 10/ 13 1014.8
SOUTHWEST PASS   1748            65 59  310/  5/ 11 1017.4
NEW CANAL        1748            68 69  280/  6/ 11 1015.4
SHELL BEACH      1748            68 73  240/ 13/ 15 1015.4

OFFSHORE STATIONS

STATION/POSITION TIME  SKY/WX   TEMP    WIND        PRES    WAVE
                                AIR SEA DIR/SP/G            HT/PER
                 (UTC)          (F)     (DEG/KT/KT) (MB)    (FT/S)
64 S DAUPHIN ISL 1750               72  270/ 12/ 14 1016.0    4/ 5

$$





USA.gov is the U.S. government's official web portal to all federal, state and local government web resources and services.